Regional Weather Roundup
Issued by NWS Northern Indiana

Home | Current Version | Previous Version | Graphics & Text | Print | Product List | Glossary On
Versions: 1 2 3 4 5 6 7 8 9 10 11 12 13 14 15 16 17 18 19 20 21 22 23 24 25 26 27 28 29 30 31 32 33 34 35 36 37 38 39 40 41 42 43 44 45 46 47 48 49 50
000
ASUS43 KIWX 211500
RWRIWX

KIWX WEATHER ROUNDUP
NATIONAL WEATHER SERVICE NORTHERN INDIANA
1100 AM EDT SUN SEP 21 2014

NOTE: "FAIR" INDICATES FEW OR NO CLOUDS BELOW 12,000 FEET WITH NO
SIGNIFICANT WEATHER AND/OR OBSTRUCTIONS TO VISIBILITY.

* THESE STATIONS ARE NOT UNDER NWS QUALITY CONTROL. THEY ALSO MAY NOT
  REPORT WEATHER SUCH AS PRECIPITATION OR FOG.

INZ001>027-211600-
NORTHERN INDIANA

CITY           SKY/WX    TMP DP  RH WIND       PRES   REMARKS
GARY*          PTSUNNY   64  50  59 W17G29    29.84R
VALPARAISO     PTSUNNY   62  50  64 W16G30    29.84R
SOUTH BEND     PTSUNNY   62  51  67 W22G33    29.80R
GOSHEN         PTSUNNY  N/A N/A N/A W15       29.79R
WARSAW*        PTSUNNY   61  52  72 W21G28    29.80S
ANGOLA*        PTSUNNY   63  54  72 W16       29.76S
FORT WAYNE     MOSUNNY   64  53  67 W20G28    29.80F
PERU/GRISSOM   SUNNY     65  57  76 W18       29.84S

$$
INZ028>050-211600-
CENTRAL INDIANA

CITY           SKY/WX    TMP DP  RH WIND       PRES   REMARKS
LAFAYETTE      SUNNY     65  54  67 W16G22    29.87F
KOKOMO*        SUNNY     64  52  63 W17G25    29.85S
MUNCIE*        SUNNY     67  50  54 W14G20    29.85S
INDIANAPOLIS   SUNNY     68  51  54 W17       29.89S

$$
MIZ043>046-050>051-056>058-064>065-071>073-077>080-211600-
SOUTHWEST LOWER MICHIGAN

CITY           SKY/WX    TMP DP  RH WIND       PRES   REMARKS
BATTLE CREEK   LGT RAIN  60  50  69 W14       29.74R
BENTON HARBOR  CLOUDY    59  51  75 W18G29    29.78R
COLDWATER*     CLOUDY    62  51  68 W16G28    29.75R
HILLSDALE*     CLOUDY    63  52  68 W16G23    29.74S
HOLLAND        CLOUDY    59  55  87 W14G29    29.73R
GRAND RAPIDS   CLOUDY    59  56  89 W13       29.70R
KALAMAZOO      CLOUDY    61  50  67 W13G25    29.75R
STURGIS*       CLOUDY    61  52  72 W12       29.76S
THREE RIVERS*  CLOUDY    60  52  73 W15G23    29.76S

$$
OHZ001>008-015>018-024>025-211600-
NORTHWEST OHIO

CITY           SKY/WX    TMP DP  RH WIND       PRES   REMARKS
DEFIANCE       PTSUNNY  N/A N/A N/A W12G17    29.76S
FINDLAY        MOSUNNY   69  57  65 W15       29.75S
TOLEDO EXPRESS MOSUNNY   67  54  63 W23G30    29.73R
TOLEDO METCALF MOSUNNY   68  54  60 W22G30    29.73R
LIMA           SUNNY     69  55  60 W17G29    29.79S

$$
AND FOR LAKE MICHIGAN COASTAL AND OPEN LAKE BUOY OBSERVATIONS

STATION/POSITION TEMP    WIND        PRES    VSBY  WAVE
                 AIR SEA DIR/SP/G                  HT/PER
                 (F)     (DEG/KT/KT) (MB)    (MI)  (FT/S)
CALUMET HARBOR    62     260/  9/ 16 1009.0R
MICHIGAN CITY     60     260/ 28/ 34   N/A
SAINT JOSEPH      62     260/ 20     1010.2R
SOUTH LAKE BUOY   59 63  270/ 21/ 27 1007.0R         5/ 5
4 MI NW BRIDGMAN  61 65  280/ 23/ 29   N/A           9/ 6
MICHIGAN CITY     61 65  300/ 21/ 29   N/A           7/ 5

$$
&&



USA.gov is the U.S. government's official web portal to all federal, state and local government web resources and services.